Regional Weather Roundup
Issued by NWS Portland, ME

Home | Current Version | Previous Version | Text Only | Print | Product List | Glossary On
Versions: 1 2 3 4 5 6 7 8 9 10 11 12 13 14 15 16 17 18 19 20 21 22 23 24 25 26 27 28 29 30 31 32 33 34 35 36 37 38 39 40 41 42 43 44 45 46 47 48 49 50
361
ASUS41 KGYX 250310
RWRGYX
WEATHER ROUNDUP FOR MAINE AND NEW HAMPSHIRE
NATIONAL WEATHER SERVICE GRAY ME
1100 PM EDT FRI JUN 24 2016

MEZ002-005-006-010-012-015-018-020-021-024-026-027-029-250400-
MAINE

CITY           SKY/WX    TMP DP  RH WIND       PRES   REMARKS
PORTLAND       CLEAR     61  48  62 SW5       30.15S
SANFORD        CLEAR     52  43  71 CALM      30.16S
BAR HARBOR     CLEAR     56  49  77 CALM      30.15S
WISCASSET      CLEAR     54  49  83 CALM      30.17R
ROCKLAND       CLEAR     54  52  93 CALM      30.15S
FRYEBURG       CLEAR     54  51  90 CALM      30.15R
LEWISTONAUBURN CLEAR     52  47  83 CALM      30.16S
AUGUSTA        CLEAR     58  46  64 S3        30.15S
WATERVILLE     CLEAR     58  48  69 S5        30.12S
BANGOR         CLEAR     62  51  67 S5        30.14R
GREENVILLE       N/A     58  41  53 CALM      30.13S
MILLINOCKET    CLEAR     55  32  41 CALM      30.13S
HOULTON        CLEAR     50  46  86 CALM      30.10R
PRESQUE ISLE   CLEAR     54  48  80 CALM      30.10S
FRENCHVILLE    CLEAR     60  41  49 W5        30.08S
CARIBOU        CLEAR     57  45  64 W3        30.08S
$$

NHZ002-005-008-009-011-012-014-250400-
NEW HAMPSHIRE

CITY           SKY/WX    TMP DP  RH WIND       PRES   REMARKS
PORTSMOUTH     CLEAR     59  50  73 SE5       30.13S
ROCHESTER      CLEAR     56  46  69 CALM      30.14S
NASHUA         CLEAR     62  49  62 CALM      30.15R
MANCHESTER     CLEAR     65  47  52 SE3       30.13R
CONCORD        CLEAR     61  48  62 E3        30.14R
LACONIA        CLEAR     62  53  72 NW5       30.15R
PLYMOUTH       FAIR      55  52  92 CALM      30.14S
BERLIN         CLEAR     50  46  86 CALM      30.16R
WHITEFIELD     CLEAR     53  48  83 CALM      30.15S
JAFFREY        CLEAR     59  52  77 CALM      30.17R
KEENE          PTCLDY    59  52  77 CALM      30.15R
LEBANON        CLEAR     57  50  77 CALM      30.13R
MT WASHINGTON  PTCLDY    46  37  71 W15         N/A
$$

VTZ005-007-008-250400-
VERMONT

CITY           SKY/WX    TMP DP  RH WIND       PRES   REMARKS
ST JOHNSBURY     N/A     58  50  75 MISG      30.14R
MONTPELIER     FAIR      56  50  80 CALM      30.19R
BURLINGTON     FAIR      64  53  67 E5        30.12R
$$

MAZ007-012-024-CTZ003-RIZ002-NYZ038-NYZ072-250400-
SOUTHERN NEW ENGLAND AND NY

CITY           SKY/WX    TMP DP  RH WIND       PRES   REMARKS
BOSTON         PTCLDY    64  54  69 SE3       30.14S
WORCESTER      CLEAR     64  45  49 SW7       30.16S
NANTUCKET      CLEAR     57  54  89 E8        30.14S
PROVIDENCE     CLEAR     64  55  72 CALM      30.15R
HARTFORD       CLEAR     67  51  56 SW7       30.13R
ALBANY         PTCLDY    65  51  60 CALM      30.10S
NEW YORK CITY  PTCLDY    72  59  63 E8        30.11R
$$

ANZ081-ANZ082-ANZ150-NHZ014-MEZ023>029-250400-
COASTAL MARINE OBSERVATIONS

STATION/POSITION TIME  TEMP    WIND        PRES    WAVE
                       AIR SEA DIR/SP/G            HT/PER
                 (UTC) (F)     (DEG/KT/KT) (MB)    (FT/S)
MOUNT DESERT ROC 0300   55     240/ 10/ 11 1021.2S
MATINICUS ROCK   0200   58     220/ 10/ 10 1020.7R
ISLE OF SHOALS   0200   63     160/ 12/ 13 1020.6R
JEFFREYS LEDGE   0208      61                N/A     2/ 7
CASHES LEDGE BUO 0250   60 59  190/  6/  8 1021.3F   2/ 8
GEORGES BANK BUO 0250   56 59              1020.8F   4/ 7
$$

.............KEY..............
   WCI - WIND CHILL
   TC  - TEMPERATURE IN CELSIUS
   VSB - VISIBILITY IN MILES
   HX  - HEAT INDEX
   FAIR- INDICATES FEW OR NO CLOUDS BELOW 12,000 FT, WITH NO
         SIGNIFICANT WEATHER AND/OR OBSTRUCTIONS TO VISIBILITY.






USA.gov is the U.S. government's official web portal to all federal, state and local government web resources and services.